CW1490 Weather Reports


time (UTC)temp
C
wind
direction
speed
KPH
gust
KPH
rain 1hr
cm
rain 24hr
cm
rain mn
cm
humidity
%
barometer
mb
20260507043004 9 317 3.2 16.1 0.00 1.52 0.00 88 1008.7
20260507042502 9 331 6.4 16.1 0.00 1.52 0.00 89 1008.7
20260507042003 9 300 3.2 12.9 0.00 1.52 0.00 89 1008.5
20260507041515 9 298 4.8 12.9 0.00 1.52 0.00 89 1008.6
20260507041003 9 279 1.6 11.3 0.00 1.52 0.00 90 1008.7
20260507040504 9 265 4.8 11.3 0.00 1.52 0.00 90 1008.8
20260507040005 9 305 3.2 8.0 0.00 1.52 0.00 90 1008.8
20260507035503 9 265 1.6 4.8 0.00 1.52 1.52 91 1008.9
20260507035005 9 298 1.6 4.8 0.00 1.52 1.52 91 1008.9
20260507034512 9 9 1.6 4.8 0.00 1.52 1.52 91 1009.0
20260507034002 9 178 0.0 4.8 0.00 1.52 1.52 90 1009.0
20260507033503 9 325 1.6 4.8 0.00 1.52 1.52 90 1009.1
20260507033016 9 287 1.6 6.4 0.00 1.52 1.52 90 1008.9
20260507032507 9 254 1.6 6.4 0.00 1.52 1.52 90 1008.8
20260507032002 9 9 1.6 6.4 0.00 1.52 1.52 90 1008.7
20260507031504 9 325 1.6 6.4 0.00 1.52 1.52 90 1008.7
20260507031002 9 321 3.2 8.0 0.00 1.52 1.52 90 1008.9
20260507030502 9 282 1.6 12.9 0.03 1.52 1.52 90 1008.8
20260507030004 9 34 3.2 12.9 0.05 1.52 1.52 90 1008.6
20260507025503 9 279 1.6 12.9 0.05 1.52 1.52 90 1008.7
20260507025002 9 325 1.6 12.9 0.08 1.52 1.52 90 1008.7
20260507024507 10 265 1.6 12.9 0.08 1.52 1.52 90 1008.6
20260507024006 10 9 1.6 12.9 0.08 1.52 1.52 90 1008.5
20260507023502 10 314 3.2 9.7 0.08 1.52 1.52 90 1008.5
20260507023012 10 336 3.2 9.7 0.08 1.52 1.52 89 1008.4
20260507022503 10 255 3.2 12.9 0.08 1.52 1.52 89 1008.6
20260507022010 10 328 4.8 19.3 0.08 1.52 1.52 89 1008.6
20260507021515 10 334 3.2 19.3 0.08 1.52 1.52 88 1008.6
20260507021007 10 334 4.8 16.1 0.08 1.52 1.52 88 1008.7
20260507020503 10 323 4.8 16.1 0.05 1.47 1.47 88 1008.7
20260507020005 10 15 3.2 22.5 0.03 1.47 1.47 87 1008.8
20260507015502 10 38 11.3 22.5 0.03 1.47 1.47 87 1008.5
20260507015002 11 48 11.3 25.7 0.00 1.45 1.45 87 1008.3
20260507014515 11 20 14.5 27.4 0.00 1.45 1.45 87 1008.1
20260507014002 11 16 17.7 43.5 0.03 1.45 1.45 87 1008.2
20260507013501 11 29 17.7 43.5 0.03 1.45 1.45 88 1008.0
20260507013022 11 55 16.1 30.6 0.05 1.45 1.45 89 1008.0
20260507012503 12 54 17.7 25.7 0.05 1.45 1.45 90 1007.9
20260507012011 12 46 11.3 20.9 0.05 1.45 1.45 91 1007.6
20260507011529 12 47 12.9 22.5 0.05 1.45 1.45 91 1007.4
20260507011005 12 59 8.0 22.5 0.05 1.45 1.45 92 1007.2
20260507010504 13 57 14.5 20.9 0.08 1.45 1.45 92 1006.9
20260507010018 13 20 8.0 16.1 0.08 1.45 1.45 92 1006.9
20260507005506 13 39 11.3 16.1 0.10 1.45 1.45 92 1006.8
20260507005007 13 9 8.0 14.5 0.13 1.45 1.45 93 1006.8
20260507004502 13 75 6.4 9.7 0.15 1.45 1.45 92 1006.4
20260507004002 13 48 4.8 16.1 0.15 1.42 1.42 93 1006.4
20260507003503 13 116 3.2 16.1 0.18 1.42 1.42 92 1006.3
20260507003005 13 291 1.6 6.4 0.20 1.40 1.40 93 1006.3
20260507002502 13 9 1.6 8.0 0.23 1.40 1.40 93 1006.3
20260507002004 13 9 3.2 14.5 0.23 1.40 1.40 93 1006.1
20260507001511 13 51 1.6 14.5 0.23 1.40 1.40 93 1006.0
20260507001003 14 51 6.4 24.1 0.23 1.40 1.40 92 1005.9
20260507000511 14 265 6.4 24.1 0.23 1.37 1.37 92 1005.8
20260507000030 15 15 11.3 19.3 0.23 1.37 1.37 93 1005.6
20260506235504 15 195 6.4 17.7 0.20 1.32 1.32 93 1005.3
20260506235006 15 205 9.7 19.3 0.18 1.32 1.32 93 1005.3
20260506234520 15 220 11.3 19.3 0.15 1.30 1.30 94 1005.2
20260506234011 15 270 6.4 12.9 0.13 1.27 1.27 93 1005.1
20260506233509 15 224 4.8 17.7 0.13 1.24 1.24 93 1005.0
20260506233004 15 224 9.7 19.3 0.08 1.19 1.19 93 1004.9
20260506232503 15 200 12.9 19.3 0.08 1.17 1.17 93 1004.8
20260506232003 15 196 11.3 19.3 0.08 1.17 1.17 93 1004.7
20260506231507 15 221 9.7 19.3 0.08 1.17 1.17 93 1004.7
20260506231002 15 208 8.0 20.9 0.08 1.17 1.17 93 1004.5
20260506230504 15 187 9.7 20.9 0.05 1.14 1.14 93 1004.6
20260506230016 15 186 11.3 19.3 0.08 1.14 1.14 93 1004.6
20260506225509 15 205 11.3 19.3 0.08 1.14 1.14 93 1004.6
20260506225006 15 220 12.9 20.9 0.10 1.14 1.14 93 1004.6
20260506224521 15 225 14.5 25.7 0.13 1.14 1.14 93 1004.6
20260506224007 15 224 11.3 25.7 0.13 1.14 1.14 93 1004.7
20260506223507 15 203 14.5 25.7 0.13 1.12 1.12 93 1004.7
20260506223025 15 193 9.7 22.5 0.13 1.12 1.12 93 1004.7
20260506222510 15 208 12.9 22.5 0.10 1.09 1.09 93 1004.7
20260506222011 15 221 9.7 19.3 0.13 1.09 1.09 93 1004.7
20260506221526 15 188 11.3 19.3 0.13 1.09 1.09 93 1004.8
20260506221007 15 205 11.3 22.5 0.13 1.09 1.09 93 1004.9
20260506220503 15 217 12.9 22.5 0.13 1.09 1.09 93 1004.8
20260506220012 15 194 12.9 22.5 0.13 1.07 1.07 93 1004.8
20260506215503 15 198 12.9 24.1 0.13 1.07 1.07 92 1004.8
20260506215007 15 217 12.9 24.1 0.10 1.04 1.04 92 1004.8
20260506214515 15 219 11.3 25.7 0.10 1.02 1.02 92 1004.8
20260506214008 15 171 14.5 25.7 0.10 1.02 1.02 92 1004.6
20260506213509 15 224 14.5 25.7 0.10 0.99 0.99 92 1004.7
20260506213018 15 201 16.1 25.7 0.10 0.99 0.99 92 1004.6
20260506212509 15 221 11.3 24.1 0.10 0.99 0.99 92 1004.7
20260506212011 15 178 14.5 25.7 0.08 0.97 0.97 92 1004.6
20260506211525 15 178 9.7 25.7 0.08 0.97 0.97 92 1004.7
20260506211010 15 200 9.7 22.5 0.10 0.97 0.97 92 1004.8
20260506210511 15 210 12.9 29.0 0.10 0.97 0.97 92 1004.8
20260506210026 15 200 14.5 29.0 0.10 0.94 0.94 92 1004.7
20260506205511 15 191 12.9 24.1 0.10 0.94 0.94 92 1004.8
20260506205004 15 207 14.5 29.0 0.10 0.94 0.94 92 1004.9
20260506204512 15 169 16.1 29.0 0.08 0.91 0.91 92 1004.9
20260506204007 15 225 11.3 30.6 0.10 0.91 0.91 92 1004.8
20260506203507 15 202 16.1 33.8 0.08 0.89 0.89 91 1004.9
20260506203022 15 178 19.3 33.8 0.08 0.89 0.89 92 1004.9
20260506202511 16 232 16.1 33.8 0.10 0.89 0.89 92 1004.9
20260506202013 16 215 12.9 33.8 0.10 0.89 0.89 92 1004.9
20260506201522 16 209 12.9 25.7 0.13 0.89 0.89 92 1004.9
20260506201008 16 217 14.5 22.5 0.13 0.86 0.86 91 1004.9
20260506200507 16 229 14.5 24.1 0.18 0.86 0.86 91 1005.0
20260506200026 16 194 14.5 29.0 0.20 0.84 0.84 91 1005.1
20260506195511 16 182 14.5 29.0 0.25 0.84 0.84 91 1005.2
20260506195009 16 194 14.5 33.8 0.28 0.84 0.84 91 1005.3
20260506194526 16 212 16.1 32.2 0.30 0.84 0.84 92 1005.3
20260506194006 16 194 16.1 30.6 0.30 0.81 0.81 92 1005.3
20260506193506 16 191 12.9 30.6 0.30 0.81 0.81 92 1005.3
20260506193008 16 237 11.3 24.1 0.30 0.81 0.81 92 1005.4
20260506192503 16 240 14.5 25.7 0.30 0.79 0.79 92 1005.4
20260506192004 16 216 14.5 25.7 0.33 0.79 0.79 92 1005.5
20260506191507 16 207 9.7 22.5 0.30 0.76 0.76 92 1005.5
20260506191004 16 198 12.9 29.0 0.30 0.74 0.74 92 1005.5
20260506190504 16 208 14.5 29.0 0.28 0.69 0.69 92 1005.5
20260506190008 16 193 19.3 41.8 0.25 0.64 0.64 92 1005.5
20260506185503 16 196 19.3 40.2 0.23 0.58 0.58 92 1005.5
20260506185003 16 183 11.3 22.5 0.23 0.56 0.56 92 1005.6
20260506184508 16 245 9.7 25.7 0.23 0.53 0.53 92 1005.7
20260506184002 16 217 11.3 25.7 0.23 0.51 0.51 92 1005.7
20260506183503 16 205 11.3 24.1 0.25 0.51 0.51 92 1005.8
20260506183008 16 224 12.9 24.1 0.28 0.51 0.51 92 1005.8
20260506182502 16 165 12.9 22.5 0.28 0.48 0.48 92 1005.8
20260506182002 16 219 9.7 17.7 0.28 0.46 0.46 92 1006.0
20260506181510 16 220 11.3 19.3 0.28 0.46 0.46 92 1006.0
20260506181003 16 236 9.7 19.3 0.28 0.43 0.43 92 1006.0
20260506180503 16 229 6.4 17.7 0.28 0.41 0.41 92 1006.3
20260506180010 16 205 6.4 17.7 0.28 0.38 0.38 92 1006.4
20260506175504 16 202 4.8 11.3 0.25 0.36 0.36 92 1006.6
20260506175006 16 212 4.8 9.7 0.25 0.33 0.33 92 1006.8
20260506174512 16 190 4.8 9.7 0.25 0.30 0.30 91 1006.7
20260506174009 16 214 6.4 14.5 0.23 0.28 0.28 92 1006.9
20260506173504 16 200 9.7 14.5 0.23 0.25 0.25 91 1006.9
20260506173011 16 215 8.0 17.7 0.20 0.23 0.23 91 1007.1
20260506172503 16 219 4.8 17.7 0.18 0.20 0.20 91 1007.1
20260506172003 16 225 6.4 12.9 0.18 0.18 0.18 91 1007.1
20260506171521 16 225 4.8 14.5 0.18 0.18 0.18 91 1007.2
20260506171005 16 221 8.0 14.5 0.15 0.15 0.15 90 1007.3
20260506170504 16 221 4.8 19.3 0.13 0.13 0.13 90 1007.4
20260506170013 16 225 8.0 19.3 0.10 0.10 0.10 90 1007.4
20260506165503 16 229 9.7 16.1 0.10 0.10 0.10 90 1007.5
20260506165005 16 201 8.0 17.7 0.08 0.08 0.08 89 1007.3
20260506164512 16 203 8.0 19.3 0.05 0.05 0.05 88 1007.3
20260506164007 16 229 9.7 19.3 0.05 0.05 0.05 87 1007.3
20260506163502 16 220 9.7 19.3 0.03 0.03 0.03 87 1007.4
20260506163020 16 229 9.7 30.6 0.03 0.03 0.03 86 1007.4
20260506162503 16 203 12.9 30.6 0.03 0.03 0.03 85 1007.4
20260506162011 16 196 12.9 22.5 0.00 0.00 0.00 84 1007.4
20260506161520 16 205 12.9 27.4 0.00 0.00 0.00 84 1007.4
20260506161007 16 219 9.7 40.2 0.00 0.00 0.00 83 1007.5
20260506160505 17 205 20.9 38.6 0.00 0.00 0.00 82 1007.6
20260506160016 17 177 12.9 29.0 0.00 0.00 0.00 82 1007.6
20260506155506 17 214 14.5 32.2 0.00 0.00 0.00 81 1007.7
20260506155004 17 212 14.5 32.2 0.00 0.00 0.00 81 1007.7
20260506154512 17 190 16.1 27.4 0.00 0.00 0.00 81 1007.9
20260506154007 17 164 14.5 22.5 0.00 0.00 0.00 81 1008.0
20260506153506 17 200 11.3 22.5 0.00 0.00 0.00 80 1008.0
20260506153015 17 217 9.7 24.1 0.00 0.00 0.00 80 1008.0
20260506152506 17 221 12.9 24.1 0.00 0.00 0.00 78 1008.1
20260506152007 17 187 14.5 24.1 0.00 0.00 0.00 78 1008.1
20260506151517 17 209 11.3 22.5 0.00 0.00 0.00 78 1008.1
20260506151008 17 205 11.3 22.5 0.00 0.00 0.00 78 1008.1
20260506150503 17 236 9.7 19.3 0.00 0.00 0.00 79 1008.1
20260506150022 17 221 9.7 20.9 0.00 0.00 0.00 79 1008.3
20260506145505 17 202 11.3 24.1 0.00 0.00 0.00 79 1008.4
20260506145008 17 227 16.1 32.2 0.00 0.00 0.00 79 1008.4
20260506144516 17 189 17.7 32.2 0.00 0.00 0.00 79 1008.5
20260506144009 16 232 12.9 30.6 0.00 0.00 0.00 79 1008.4
20260506143506 16 189 17.7 30.6 0.00 0.00 0.00 79 1008.2
20260506143018 16 210 11.3 27.4 0.00 0.00 0.00 79 1008.4
20260506142509 16 231 17.7 27.4 0.00 0.00 0.00 78 1008.2
20260506142010 16 207 14.5 24.1 0.00 0.00 0.00 78 1008.2
20260506141517 16 236 12.9 32.2 0.00 0.00 0.00 78 1008.1
20260506141006 16 254 19.3 32.2 0.00 0.00 0.00 78 1008.4
20260506140507 16 231 14.5 29.0 0.00 0.00 0.00 78 1008.6
20260506140020 16 225 16.1 29.0 0.00 0.00 0.00 78 1008.4
20260506135507 16 219 12.9 27.4 0.00 0.00 0.00 79 1008.2
20260506135013 16 227 19.3 35.4 0.00 0.00 0.00 79 1008.1
20260506134543 16 231 19.3 35.4 0.00 0.00 0.00 79 1008.1
20260506133508 16 221 11.3 19.3 0.00 0.00 0.00 79 1008.1
20260506133022 16 221 6.4 19.3 0.00 0.00 0.00 81 1008.1
20260506132509 16 210 9.7 20.9 0.00 0.00 0.00 80 1007.9
20260506132007 16 224 9.7 20.9 0.00 0.00 0.00 81 1008.1
20260506131526 15 217 9.7 29.0 0.00 0.00 0.00 81 1008.2
20260506131008 15 221 14.5 29.0 0.00 0.00 0.00 81 1008.4
20260506130510 15 217 11.3 29.0 0.00 0.00 0.00 81 1008.5
20260506130020 15 203 17.7 30.6 0.00 0.00 0.00 81 1008.6
20260506125507 15 191 16.1 30.6 0.00 0.00 0.00 81 1008.6
20260506125008 15 208 12.9 37.0 0.00 0.00 0.00 81 1008.7
20260506124522 15 215 16.1 37.0 0.00 0.00 0.00 81 1008.7
20260506124007 15 189 16.1 30.6 0.00 0.00 0.00 81 1008.9
20260506123508 15 237 16.1 32.2 0.00 0.00 0.00 81 1008.9
20260506123020 15 203 16.1 32.2 0.00 0.00 0.00 81 1009.0
20260506122511 15 202 16.1 25.7 0.00 0.00 0.00 81 1008.8
20260506122007 15 229 12.9 25.7 0.00 0.00 0.00 81 1008.8
20260506121522 15 203 11.3 30.6 0.00 0.00 0.00 82 1008.7
20260506121009 15 203 14.5 30.6 0.00 0.00 0.00 81 1008.6
20260506120503 15 232 12.9 35.4 0.00 0.00 0.00 81 1008.4
20260506120025 15 219 19.3 33.8 0.00 0.00 0.00 82 1008.3
20260506115505 15 213 12.9 30.6 0.00 0.00 0.00 82 1008.3
20260506115012 15 198 16.1 29.0 0.00 0.00 0.00 82 1008.2
20260506114521 15 223 12.9 25.7 0.00 0.00 0.00 82 1008.6
20260506114006 15 205 14.5 24.1 0.00 0.00 0.00 83 1008.6
20260506113507 15 227 12.9 24.1 0.00 0.00 0.00 83 1008.6
20260506113019 15 178 11.3 24.1 0.00 0.00 0.00 83 1008.7
20260506112506 15 214 16.1 24.1 0.00 0.00 0.00 83 1008.8
20260506112014 15 213 11.3 20.9 0.00 0.00 0.00 84 1008.9
20260506111522 14 360 9.7 22.5 0.00 0.00 0.00 84 1008.9
20260506111006 14 232 8.0 22.5 0.00 0.00 0.00 84 1008.8
20260506110509 14 166 8.0 14.5 0.00 0.00 0.00 85 1008.7
20260506110026 13 209 3.2 12.9 0.00 0.00 0.00 86 1008.7
20260506105510 13 225 6.4 12.9 0.00 0.00 0.00 86 1008.8
20260506105010 13 236 6.4 12.9 0.00 0.00 0.00 87 1008.7
20260506104510 13 232 4.8 16.1 0.00 0.00 0.00 88 1008.7
20260506104002 12 221 8.0 16.1 0.00 0.00 0.00 89 1008.7
20260506103503 12 217 1.6 6.4 0.00 0.00 0.00 89 1008.7
20260506103022 12 119 1.6 6.4 0.00 0.00 0.00 89 1008.8
20260506102507 11 238 1.6 6.4 0.00 0.00 0.00 89 1008.8
20260506102010 11 238 1.6 6.4 0.00 0.00 0.00 89 1008.6
20260506101519 11 190 1.6 4.8 0.00 0.00 0.00 89 1008.7
20260506101007 11 227 1.6 6.4 0.00 0.00 0.00 89 1008.7
20260506100506 11 243 1.6 8.0 0.00 0.00 0.00 89 1008.6
20260506100031 11 238 3.2 8.0 0.00 0.00 0.00 89 1008.6
20260506095507 11 221 0.0 3.2 0.00 0.00 0.00 90 1008.6
20260506095009 11 325 0.0 3.2 0.00 0.00 0.00 90 1008.7
20260506094524 11 26 1.6 3.2 0.00 0.00 0.00 89 1008.6
20260506094009 11 80 0.0 3.2 0.00 0.00 0.00 89 1008.6
20260506093509 11 221 0.0 3.2 0.00 0.00 0.00 89 1008.6
20260506093013 11 238 1.6 3.2 0.00 0.00 0.00 89 1008.6
20260506092507 11 265 0.0 3.2 0.00 0.00 0.00 89 1008.5
20260506092007 11 221 0.0 3.2 0.00 0.00 0.00 89 1008.6
20260506091519 11 238 0.0 3.2 0.00 0.00 0.00 88 1008.5
20260506091003 11 221 0.0 3.2 0.00 0.00 0.00 88 1008.7
20260506090502 11 238 0.0 4.8 0.00 0.00 0.00 88 1008.7
20260506090006 11 247 0.0 4.8 0.00 0.00 0.00 88 1008.7
20260506085501 11 279 0.0 3.2 0.00 0.00 0.00 87 1008.6
20260506085003 12 298 1.6 3.2 0.00 0.00 0.00 87 1008.6
20260506084504 12 9 0.0 3.2 0.00 0.00 0.00 87 1008.6
20260506084004 12 178 0.0 3.2 0.00 0.00 0.00 86 1008.6
20260506083504 12 51 0.0 3.2 0.00 0.00 0.00 86 1008.8
20260506083011 12 221 0.0 3.2 0.00 0.00 0.00 86 1008.8
20260506082506 12 221 1.6 4.8 0.00 0.00 0.00 85 1008.7
20260506082006 12 243 1.6 4.8 0.00 0.00 0.00 86 1008.7
20260506081521 12 265 3.2 4.8 0.00 0.00 0.00 84 1008.7
20260506081010 12 247 3.2 4.8 0.00 0.00 0.00 83 1008.7
20260506080507 13 265 1.6 4.8 0.00 0.00 0.00 83 1008.7
20260506073506 14 93 1.6 6.4 0.00 0.00 0.00 78 1008.9
20260506073007 14 9 3.2 6.4 0.00 0.00 0.00 78 1009.1
20260506072504 14 243 1.6 8.0 0.00 0.00 0.00 78 1009.0
20260506072004 15 282 1.6 8.0 0.00 0.00 0.00 77 1008.9
20260506071513 15 205 3.2 8.0 0.00 0.00 0.00 77 1008.9
20260506071009 15 178 1.6 8.0 0.00 0.00 0.00 77 1008.8
20260506070504 15 137 3.2 8.0 0.00 0.00 0.00 77 1008.9
20260506062503 15 190 3.2 6.4 0.00 0.00 0.00 73 1008.7
20260506062003 15 212 3.2 6.4 0.00 0.00 0.00 72 1008.7
20260506061511 16 188 3.2 8.0 0.00 0.00 0.00 72 1008.7
20260506061004 16 221 3.2 11.3 0.00 0.00 0.00 72 1008.8
20260506060506 16 232 4.8 14.5 0.00 0.00 0.00 70 1008.8
20260506051003 17 201 12.9 24.1 0.00 0.00 0.00 67 1008.9
20260506050504 17 223 12.9 24.1 0.00 0.00 0.00 67 1008.9
20260506045004 17 196 9.7 22.5 0.00 0.00 0.00 66 1008.9
20260506044518 17 195 9.7 22.5 0.00 0.00 0.00 66 1008.9
20260506044008 17 168 14.5 30.6 0.00 0.00 0.00 65 1009.0
20260506043508 17 208 11.3 30.6 0.00 0.00 0.00 65 1008.9